Content
SEND FEEDBACK

Daily
Averages
Monthly
Summary
United Kingdom

HORSHAM, ENGLAND


Home > Europe > United Kingdom > England
Elevation: 170 feet     Latitude: 51 07N     Longitude: 000 31W

WEATHER
 
SELECT A DAY
Number of Records: 170,830;   Date Range: 2/20/97 - 7/20/14
 
SHARE

PRINT THIS DATA

[ ← Previous Day ]
WEATHER ALMANAC - FEBRUARY 21, 2014
[ Next Day → ]
[ °C ]   °F
Weather ElementAverageHighLow
Temperature43.3 °F48.2 °F (1:50 pm)36 °F (6:00 am)
Dewpoint35.5 °F38 °F (9:00 pm)33 °F (2:00 pm)
Humidity71.3 %93 % (7:50 am)44 % (2:00 pm)
Barometer29.65 in29.68 in (10:00 am)29.58 in (1:00 am)
Wind Speed15.9 mph25.3 mph (1:00 pm)
Wind Gust33.4 mph (2:20 pm)
Weather ElementAverage
Visibility12.5 mi
Wind DirectionWSW (237.2 °)

Weather ElementTotal
Precipitation---
Heating Degree Days22.9 (Base 65)
Averaged from 50 records on February 21, 2014
WEATHER CONDITIONS BREAKOUT
WIND DIRECTION BREAKOUT
WEATHER BY HOUR - FEBRUARY 21, 2014
[ °C ]   °F
Local TimeTemperatureDewpointHumidityBarometerVisibilityWind DirectionWind SpeedGust SpeedPrecipitationEventsConditions
1:00 AM38.0 °F36.0 °F88 %29.58 in22.0 miWSW (240°)5.8 mphMostly Cloudy
2:00 AM39.0 °F37.0 °F88 %29.60 in22.0 miWSW (250°)4.6 mphPartly Cloudy
3:00 AM39.0 °F36.0 °F83 %29.60 in28.0 miWest (260°)6.9 mphScattered Clouds
4:00 AM39.0 °F35.0 °F80 %29.60 in22.0 miWest (270°)9.2 mphScattered Clouds
5:00 AM37.0 °F34.0 °F85 %29.62 in16.0 miWSW (250°)6.9 mphScattered Clouds
6:00 AM36.0 °F34.0 °F88 %29.63 in17.0 miWSW (240°)8.1 mph
6:50 AM37.4 °F33.8 °F87 %29.62 inWSW (240°)10.4 mphClear
7:00 AM37.0 °F34.0 °F84 %29.64 in16.0 miWSW (240°)10.4 mph
7:20 AM37.4 °F33.8 °F87 %SW (230°)12.7 mphClear
7:50 AM37.4 °F35.6 °F93 %29.65 in6.2 miSW (230°)12.7 mphPartly Cloudy
8:00 AM38.0 °F35.0 °F83 %29.66 in16.0 miWSW (240°)10.4 mph
8:20 AM39.2 °F35.6 °F87 %29.65 in6.2 miWSW (240°)12.7 mphPartly Cloudy
8:50 AM41.0 °F35.6 °F81 %29.65 inWSW (240°)13.8 mphClear
9:00 AM42.0 °F36.0 °F74 %29.67 in22.0 miWSW (240°)12.7 mph
9:20 AM42.8 °F35.6 °F76 %29.65 inWSW (240°)17.3 mphClear
9:50 AM42.8 °F37.4 °F81 %29.65 in6.2 miWSW (240°)19.6 mphPartly Cloudy
10:00 AM44.0 °F36.0 °F66 %29.68 in15.0 miWSW (240°)17.3 mph
10:20 AM44.6 °F35.6 °F71 %29.65 in6.2 miWSW (240°)19.6 mphPartly Cloudy
10:50 AM44.6 °F35.6 °F71 %29.68 in6.2 miWSW (240°)21.9 mphPartly Cloudy
11:00 AM46.0 °F36.0 °F60 %29.68 in19.0 miWSW (240°)19.6 mphScattered Clouds
11:20 AM46.4 °F35.6 °F66 %29.68 in6.2 miWSW (240°)23.0 mphScattered Clouds
11:50 AM44.6 °F33.8 °F66 %29.68 in6.2 miWSW (240°)21.9 mphScattered Clouds
12:00 PM47.0 °F36.0 °F54 %29.68 in19.0 miWSW (240°)19.6 mphScattered Clouds
12:20 PM46.4 °F33.8 °F62 %29.65 in6.2 miSW (230°)23.0 mphScattered Clouds
1:00 PM48.0 °F34.0 °F46 %29.66 in18.0 miSW (230°)25.3 mphPartly Cloudy
1:20 PM46.4 °F33.8 °F62 %29.65 in6.2 miWSW (250°)19.6 mphScattered Clouds
1:50 PM48.2 °F33.8 °F58 %29.65 in6.2 miWSW (250°)23.0 mphPartly Cloudy
2:00 PM48.0 °F33.0 °F44 %29.66 in19.0 miWSW (250°)19.6 mphScattered Clouds
2:20 PM48.2 °F33.8 °F58 %29.65 in6.2 miSW (230°)21.9 mph33.4 mphPartly Cloudy
2:50 PM48.2 °F35.6 °F62 %29.65 in6.2 miWSW (240°)19.6 mphPartly Cloudy
3:00 PM48.0 °F36.0 °F51 %29.65 in18.0 miWSW (240°)17.3 mphScattered Clouds
3:20 PM48.2 °F33.8 °F58 %29.65 in6.2 miWSW (240°)21.9 mphPartly Cloudy
3:50 PM46.4 °F35.6 °F66 %29.65 in6.2 miSW (220°)16.1 mphScattered Clouds
4:00 PM47.0 °F35.0 °F53 %29.65 in19.0 miWSW (240°)16.1 mphScattered Clouds
4:20 PM46.4 °F35.6 °F66 %29.65 in6.2 miSW (230°)17.3 mphScattered Clouds
4:50 PM46.4 °F35.6 °F66 %29.65 in6.2 miSW (230°)16.1 mphScattered Clouds
5:00 PM47.0 °F36.0 °F56 %29.66 in16.0 miWSW (240°)16.1 mphPartly Cloudy
5:20 PM44.6 °F35.6 °F71 %29.65 in6.2 miSW (230°)13.8 mphScattered Clouds
5:50 PM44.6 °F35.6 °F71 %29.65 in6.2 miWSW (240°)18.4 mphScattered Clouds
6:00 PM45.0 °F36.0 °F60 %29.67 in19.0 miWSW (240°)18.4 mphPartly Cloudy
6:20 PM42.8 °F35.6 °F76 %29.65 in6.2 miSW (230°)17.3 mphPartly Cloudy
6:50 PM42.8 °F35.6 °F76 %29.65 in6.2 miSW (220°)15.0 mphPartly Cloudy
7:00 PM43.0 °F35.0 °F66 %29.67 in19.0 miSW (230°)15.0 mph
7:20 PM42.8 °F37.4 °F81 %29.65 in6.2 miSW (220°)13.8 mphPartly Cloudy
7:50 PM42.8 °F37.4 °F81 %29.65 in6.2 miSW (220°)16.1 mphPartly Cloudy
8:00 PM43.0 °F37.0 °F72 %29.67 in19.0 miSW (230°)16.1 mphMostly Cloudy
8:20 PM42.8 °F37.4 °F81 %29.65 inSW (220°)15.0 mphClear
9:00 PM43.0 °F38.0 °F76 %29.67 in14.0 miSW (230°)15.0 mphScattered Clouds
10:00 PM43.0 °F38.0 °F77 %29.66 in15.0 miSW (230°)15.0 mphScattered Clouds
11:00 PM44.0 °F37.0 °F68 %29.66 in17.0 miSW (230°)16.1 mphMostly Cloudy
Hourly data recorded from EGLF, located miles away from Horsham, England







STORIES FROM OUR PARTNERS